EHI
13 7 2 0 0 0 0 0 0 0 0 0 0 0 0 0 0 0 0 0 0 0 1 2 3 3 3 4 4 2 0 0 1 1 1 0 1 2 2 1 0 1 2 1 2 3 3 3 3
8 6 3 1 0 0 0 0 0 0 0 0 0 0 0 0 0 0 0 0 0 0 0 2 4 5 4 3 3 2 1 1 1 1 0 0 0 1 1 0 0 1 2 1 1 2 3 3 2
7 6 4 2 0 0 0 0 0 0 0 0 0 0 0 0 0 0 0 0 0 0 0 3 5 6 5 2 2 2 3 2 1 0 1 1 1 0 0 0 0 1 2 2 1 1 2 2 1
8 7 4 2 0 0 0 0 0 0 0 0 0 0 0 0 0 1 1 1 0 0 0 2 4 5 4 3 2 3 3 3 1 0 1 2 2 1 0 0 0 1 2 2 1 0 1 1 0
9 7 3 1 0 0 0 0 0 0 0 0 0 0 0 0 1 1 2 1 0 0 0 1 2 2 3 3 3 3 3 3 2 1 1 2 2 1 0 0 0 0 1 1 0 0 0 0 0
11 7 2 0 0 0 0 0 0 0 0 0 1 0 0 1 2 2 2 1 0 0 0 0 0 1 3 4 3 2 2 3 3 1 1 1 1 0 0 0 0 0 0 0 0 0 0 0 1
11 6 1 0 0 0 0 0 0 0 0 0 0 0 0 1 1 2 1 0 0 0 0 0 0 1 2 4 3 2 3 4 4 3 2 2 1 0 0 0 1 1 1 0 0 0 0 1 2
7 4 1 0 0 0 1 1 1 0 0 0 0 0 0 1 1 1 0 0 0 0 0 0 0 0 1 2 3 3 4 6 6 5 3 1 1 0 0 1 2 3 2 0 0 0 1 2 3
4 2 1 1 0 1 2 2 1 1 0 0 0 0 1 1 2 1 1 1 0 0 0 0 0 0 0 1 2 3 4 5 4 3 2 1 0 0 0 1 4 5 4 2 1 1 1 2 2
3 2 1 1 0 1 2 2 2 1 1 1 1 2 2 3 3 4 4 3 1 0 0 0 0 0 0 0 1 1 1 2 1 1 1 0 0 0 0 1 4 5 4 3 2 2 1 1 1
3 2 1 0 0 0 1 1 2 3 2 1 2 4 5 5 6 7 7 5 2 0 0 0 0 0 0 0 0 0 0 0 0 0 0 0 0 0 0 1 2 2 2 1 1 1 0 0 0
2 2 1 0 0 0 0 2 4 4 2 1 2 4 6 7 7 8 8 6 3 1 0 1 1 0 0 0 0 0 0 0 0 0 0 0 0 0 0 0 0 0 0 0 0 0 0 0 0
1 1 0 0 0 0 1 3 6 6 4 2 1 2 5 8 9 9 8 7 5 2 1 2 2 1 0 0 0 0 0 0 0 0 0 0 0 0 0 0 0 0 0 0 0 0 0 0 0
0 0 0 0 0 0 1 4 7 8 7 5 2 2 5 8 11 9 6 5 4 3 2 2 3 2 1 1 1 1 0 0 0 0 0 0 0 0 0 0 0 0 0 0 0 0 0 0 0
0 0 0 0 0 0 1 3 6 7 7 7 5 4 5 9 10 8 5 3 3 3 3 2 3 3 3 2 2 2 1 0 0 0 0 0 0 0 0 0 0 0 0 0 0 0 0 0 0
0 0 0 0 0 0 0 1 3 4 5 7 7 7 8 10 10 7 5 4 3 3 4 4 3 3 3 3 3 2 1 0 0 0 0 0 0 0 0 0 0 0 0 0 0 0 0 0 0
0 0 0 0 1 1 0 1 1 2 4 6 9 11 12 13 10 7 7 7 6 5 5 5 4 4 4 3 2 1 0 0 0 0 0 0 1 0 0 0 0 0 0 0 0 0 0 0 0
0 0 0 0 1 1 0 0 0 2 5 7 11 15 16 15 12 10 10 10 9 8 7 6 5 6 6 5 2 0 0 0 0 0 0 0 0 0 0 0 0 0 0 0 0 0 0 0 0
0 0 0 0 1 1 0 0 1 3 6 10 13 16 18 18 16 14 13 13 11 10 8 7 7 8 8 6 4 1 0 0 0 0 0 0 0 0 1 1 1 0 0 0 0 0 0 0 0
0 0 0 0 0 0 0 1 2 4 7 10 13 17 20 21 21 20 17 14 13 11 10 9 9 10 10 8 5 2 1 0 0 0 0 0 0 1 2 2 2 1 0 0 0 0 0 0 0
0 0 0 0 0 0 0 1 3 5 6 8 11 16 21 25 27 25 21 17 15 13 11 11 12 12 12 11 8 5 2 1 0 0 0 0 0 1 2 3 3 2 1 0 0 0 0 0 0
0 0 0 0 0 0 0 0 2 4 7 8 11 16 22 27 31 31 27 22 19 16 14 15 14 12 12 12 10 8 5 2 0 0 0 0 0 1 2 3 3 3 1 0 0 0 0 0 0
0 0 0 0 0 0 0 0 2 4 8 10 14 18 23 27 31 33 31 28 25 22 20 20 19 16 13 13 12 10 7 4 1 0 0 0 0 1 3 4 3 3 2 1 0 0 0 0 0
0 0 0 0 0 0 0 0 1 4 6 9 13 17 22 26 27 28 30 31 30 30 29 28 25 21 18 16 14 12 9 7 4 3 1 1 1 2 5 5 4 4 3 1 0 0 0 0 0
0 0 0 0 0 0 0 1 2 3 4 5 9 14 20 24 25 24 26 31 36 36 37 36 31 25 21 17 14 12 11 9 8 7 6 4 4 5 6 7 6 5 4 1 0 0 0 0 0
0 0 0 0 0 0 0 1 2 3 4 4 7 12 18 24 27 26 27 34 40 41 41 40 34 27 22 17 14 12 11 11 11 11 10 8 6 6 7 8 8 7 6 3 1 1 1 1 0
0 0 0 0 0 0 1 2 3 4 5 6 7 10 16 24 29 30 32 37 42 43 42 41 37 31 24 19 16 14 13 13 13 13 13 11 8 6 5 7 9 9 7 4 3 2 2 2 1
0 0 0 0 0 0 1 2 3 4 6 8 8 9 14 22 29 33 35 37 40 41 40 40 39 36 30 25 21 18 16 16 16 16 16 13 8 4 3 6 8 9 8 5 3 3 3 3 3
0 0 0 0 0 0 0 2 4 5 7 11 13 13 15 19 25 31 34 36 37 37 38 40 41 39 36 31 27 23 21 19 19 18 17 13 7 3 3 5 7 8 7 6 4 3 3 3 3
0 0 0 0 0 0 0 2 4 6 8 14 19 18 16 17 22 29 33 36 38 38 38 40 42 42 38 35 31 27 24 22 21 19 16 12 7 4 3 4 6 7 6 6 5 4 3 3 3
Wind_Speed
9 6 3 1 2 3 2 2 4 6 6 7 9 10 9 7 6 6 3 7 8 6 5 7 9 10 10 11 11 12 12 13 13 13 14 14 14 14 14 15 15 15 15 15 15 15 14 14 13
6 6 2 1 3 3 2 4 7 8 9 9 10 10 9 7 7 8 5 7 8 7 4 7 10 10 11 12 12 12 13 13 13 13 14 14 14 14 14 14 15 15 15 15 14 14 14 13 12
5 3 1 2 1 3 4 6 10 9 9 7 6 7 6 6 6 6 7 10 8 5 4 7 11 11 12 12 12 13 13 13 13 13 14 14 14 14 14 14 14 14 14 14 13 13 13 12 11
2 1 2 2 2 3 6 8 11 11 9 8 9 7 5 5 5 8 12 11 9 6 5 7 11 11 11 12 13 13 13 14 13 13 13 13 14 13 13 13 13 13 13 13 12 12 11 11 10
1 2 2 1 2 4 7 10 11 10 6 9 10 8 5 4 10 13 12 11 10 6 5 7 11 11 11 12 13 13 13 13 13 13 13 13 13 12 12 12 11 11 11 12 11 11 10 10 9
1 2 3 2 4 6 7 11 13 14 13 11 10 8 3 6 10 11 11 9 9 7 5 6 10 11 11 11 12 12 12 12 12 12 12 12 12 11 11 10 10 10 10 11 11 10 9 9 8
2 2 1 3 6 7 7 8 10 11 11 8 8 7 3 4 7 9 10 9 8 7 6 4 5 7 9 10 10 11 11 11 11 11 11 11 11 11 10 9 9 9 10 10 10 9 8 8 7
3 2 1 2 6 5 6 7 10 12 9 10 7 7 6 7 8 10 9 8 7 6 5 5 4 4 4 5 9 10 10 10 10 10 10 10 10 10 9 7 8 9 10 10 9 9 7 6 6
3 3 1 4 6 5 8 11 8 9 11 7 5 7 10 12 11 10 9 7 6 7 4 4 4 4 3 4 6 7 8 9 8 7 9 8 3 4 4 6 8 9 9 9 8 8 7 6 5
4 3 5 5 6 8 10 13 10 8 10 9 10 11 13 12 11 11 10 9 7 7 5 4 5 4 4 4 4 2 3 3 3 3 3 2 2 2 3 5 7 8 8 7 7 7 6 3 2
5 5 3 4 7 9 10 10 8 12 8 12 15 14 13 12 10 10 9 9 8 7 6 4 4 4 4 3 3 2 1 2 2 2 3 2 2 1 1 1 2 3 4 2 2 2 1 2 2
3 3 4 4 6 8 8 8 8 8 9 13 15 14 12 11 10 10 9 8 7 7 6 5 4 4 4 4 3 2 2 2 2 2 3 3 2 2 2 1 1 1 1 1 1 1 1 2 3
3 2 3 4 6 7 10 10 10 10 13 13 14 13 11 11 10 8 9 8 8 7 6 5 5 5 4 3 2 3 2 2 2 2 3 3 3 2 2 2 1 2 1 2 2 2 2 2 2
2 2 3 5 6 8 11 9 8 12 15 15 13 11 11 11 11 9 8 8 8 7 6 5 5 5 4 3 2 2 2 2 2 2 3 4 3 3 3 2 2 2 2 2 2 2 2 2 2
3 4 3 3 5 6 10 6 8 14 15 15 13 12 11 11 11 11 10 9 9 8 6 6 6 5 4 4 3 3 3 2 2 2 2 3 3 4 3 2 2 2 2 2 2 2 1 1 2
4 4 1 3 3 4 8 5 7 11 14 13 12 12 11 9 10 11 11 9 8 8 7 6 6 5 4 4 3 2 2 2 2 2 2 3 4 4 3 2 2 2 2 2 2 2 1 1 1
3 1 2 4 3 4 5 5 8 9 12 12 12 12 12 10 9 9 10 10 9 8 7 6 5 5 4 4 3 3 2 2 2 1 2 2 3 4 3 3 2 2 2 1 2 2 2 2 1
4 3 3 4 3 4 3 5 8 10 11 11 11 12 11 12 11 11 10 9 9 8 7 6 5 5 4 3 2 2 2 1 1 1 2 2 2 3 3 2 2 3 2 1 1 2 1 2 2
6 4 4 5 4 4 5 6 9 10 10 10 10 11 11 11 10 10 11 10 8 7 7 6 6 4 4 2 2 2 1 1 1 1 2 3 3 3 3 3 2 3 2 2 2 2 2 1 1
5 4 4 4 4 4 5 6 8 9 12 13 14 14 13 11 10 10 10 10 9 9 7 7 6 6 5 3 3 2 2 2 1 1 1 2 3 3 3 3 2 2 2 2 2 2 1 0 1
6 7 8 5 1 2 5 0 4 5 6 9 12 13 14 16 16 14 13 11 11 10 9 8 7 6 5 4 3 2 2 1 1 1 1 1 2 3 3 4 3 3 2 2 2 2 3 1 1
7 9 7 6 4 2 5 3 6 7 6 8 10 12 14 15 14 14 13 12 12 11 10 8 7 6 5 5 5 5 4 3 3 2 1 1 2 2 3 3 3 3 2 2 2 2 2 3 1
7 6 5 6 4 1 0 3 5 4 6 9 10 13 14 15 16 16 16 15 13 11 10 8 7 6 5 6 6 5 4 3 2 2 2 1 1 2 3 3 3 3 2 2 2 2 2 2 2
3 2 3 3 4 0 4 3 5 6 11 9 10 11 12 13 14 13 13 12 11 10 9 9 8 7 6 6 6 6 5 4 4 3 3 2 1 1 2 3 3 3 2 2 2 2 2 2 2
3 5 4 4 4 4 3 3 8 9 10 11 11 11 11 12 12 11 12 12 12 12 11 10 10 8 7 7 6 6 6 6 6 5 4 3 2 1 2 2 2 2 2 2 2 2 2 2 2
3 8 7 5 5 4 2 4 7 6 8 8 9 11 10 9 11 12 12 13 13 13 12 11 10 8 8 7 6 5 5 4 3 4 4 4 3 3 3 3 3 2 2 2 2 2 1 1 1
3 3 8 7 3 1 3 4 6 2 2 5 7 8 9 10 10 11 11 11 11 11 11 12 11 9 8 8 7 5 5 5 4 4 3 3 2 3 3 3 3 2 2 2 3 2 2 1 1
6 6 5 6 4 1 3 4 4 2 2 4 7 8 9 8 9 10 11 11 10 10 9 10 10 10 9 8 7 6 5 5 5 4 4 4 3 3 3 2 3 2 2 2 2 1 1 1 1
0 2 5 4 6 6 3 7 7 8 8 8 8 9 9 10 10 10 11 11 10 9 9 9 9 8 7 7 6 6 5 5 5 4 4 4 3 3 3 3 3 3 2 2 2 1 1 2 1
4 5 7 5 3 5 5 7 5 5 5 7 7 7 6 8 8 9 9 8 8 9 9 9 9 9 8 8 7 6 5 5 4 4 4 4 4 3 4 4 4 3 3 3 3 3 2 2 2
Wind_Direction
163 164 169 173 50 52 84 109 117 93 74 65 75 81 80 69 94 120 144 129 126 130 128 113 101 99 102 104 104 104 104 104 106 109 114 117 119 119 119 121 124 126 127 127 128 128 128 127 126
164 171 177 59 71 83 87 115 104 105 124 112 83 81 77 72 88 111 125 132 129 129 126 116 108 103 104 107 107 107 106 105 108 112 116 117 121 122 121 123 126 127 128 128 129 129 128 126 125
175 182 122 65 87 138 131 129 122 118 120 105 90 67 71 99 109 123 142 138 127 120 121 122 115 110 108 110 111 112 110 109 111 114 117 119 122 124 124 125 126 128 129 131 131 129 129 129 130
153 103 51 63 113 147 133 131 123 114 94 87 97 76 66 97 117 132 138 134 127 126 126 127 121 118 116 115 114 113 113 113 113 116 118 119 121 123 124 125 127 129 132 134 132 132 134 134 134
127 100 59 55 95 111 120 126 122 110 98 96 95 94 77 77 115 130 135 133 133 135 132 130 128 125 124 122 120 118 117 117 116 115 115 117 119 121 123 124 128 134 138 138 137 136 137 136 135
81 75 73 85 94 99 104 112 109 105 111 108 104 103 89 117 123 136 138 136 138 137 134 131 132 131 127 128 126 123 121 120 118 118 118 117 119 120 123 126 132 138 144 145 143 142 141 139 138
118 96 139 133 113 114 122 118 116 122 126 124 124 103 117 137 138 137 138 138 137 134 130 127 132 133 133 132 132 130 127 125 125 123 123 124 124 125 126 129 135 141 144 146 149 149 149 148 146
158 105 69 121 115 118 130 114 125 125 119 129 124 124 153 165 142 127 127 123 126 126 131 136 130 127 130 133 141 139 136 134 132 130 128 129 130 133 133 130 132 140 145 148 155 159 157 156 154
132 89 169 155 132 135 128 114 114 103 114 128 109 129 147 143 131 119 117 116 124 125 131 137 139 142 139 140 144 144 144 143 142 139 137 132 121 125 132 140 138 142 151 158 163 169 171 171 168
142 150 197 170 148 148 135 127 128 114 111 108 110 121 133 135 133 130 133 138 138 141 147 144 147 149 151 153 134 139 148 143 142 138 137 130 134 142 145 150 155 156 159 165 171 177 175 173 153
156 178 172 142 149 143 131 127 117 124 129 142 142 145 145 141 141 141 143 146 149 150 148 147 149 149 145 136 140 143 138 148 152 159 158 145 140 142 140 140 156 154 156 150 161 178 170 156 162
133 175 158 139 131 131 132 127 119 128 148 148 145 147 147 144 145 147 148 146 144 143 150 149 147 145 143 140 145 148 142 150 161 169 164 150 146 150 145 147 156 151 147 150 158 169 167 171 178
126 156 141 126 115 118 122 126 122 129 139 144 144 143 147 147 147 148 144 141 139 143 146 147 145 144 147 137 146 145 152 161 166 163 171 163 157 164 167 173 171 178 163 164 172 181 176 178 180
161 97 98 102 106 117 118 124 115 143 146 148 150 149 150 149 148 143 143 141 146 149 149 146 142 143 140 138 145 152 163 161 156 168 176 168 163 166 171 172 177 189 184 182 178 179 177 180 165
103 72 36 93 111 128 112 107 142 155 153 154 157 154 151 151 150 152 155 151 150 152 151 151 148 138 139 144 152 151 158 151 156 170 176 172 167 163 165 168 176 187 178 167 152 155 143 154 152
53 61 25 266 139 149 117 154 172 161 157 160 162 159 154 155 157 159 157 154 153 151 154 162 150 144 147 146 139 138 145 148 157 165 164 177 173 160 156 160 177 176 152 148 147 139 132 143 145
23 98 239 264 193 154 121 159 180 170 161 166 164 164 161 161 162 163 161 159 160 158 157 161 154 154 153 146 139 132 131 138 154 145 153 171 171 164 156 161 168 153 134 138 164 144 155 159 159
227 207 226 230 218 148 141 169 172 176 169 170 170 168 168 170 174 169 164 164 162 160 159 159 155 159 150 136 122 106 100 112 123 134 150 154 156 152 145 148 145 133 128 132 148 154 157 165 178
201 211 235 244 208 152 175 174 179 184 180 176 176 173 175 178 177 169 165 164 160 161 159 161 158 165 151 137 138 137 148 149 128 150 142 140 144 138 134 137 139 137 143 160 159 144 139 145 127
207 208 244 257 215 156 175 196 193 188 191 186 181 180 178 172 167 171 170 167 168 173 169 166 169 169 167 165 164 159 156 167 160 143 125 134 132 137 141 140 145 142 136 134 142 131 134 171 141
227 206 211 206 172 105 121 261 215 214 204 197 188 182 176 174 173 176 178 179 174 178 178 176 176 170 168 159 136 122 91 71 65 98 131 143 138 141 142 143 142 140 140 156 164 155 154 171 211
233 223 201 188 147 207 155 198 239 204 205 203 194 186 183 180 177 180 180 181 181 183 179 174 173 169 168 157 148 149 154 166 191 178 168 170 147 140 143 140 144 147 149 159 179 166 161 148 166
229 221 189 191 162 127 73 147 267 178 210 212 199 193 189 185 183 183 184 184 184 180 177 174 170 173 171 163 162 161 164 174 169 154 151 168 172 152 152 147 144 151 159 166 161 147 144 148 159
211 40 24 52 76 23 239 162 253 208 211 205 196 192 187 185 184 186 185 179 180 177 175 172 171 179 177 170 166 166 166 163 155 163 169 179 181 173 165 150 151 162 165 168 170 166 153 162 157
66 85 30 3 17 254 248 165 238 223 203 193 188 191 188 186 183 183 182 180 180 178 177 175 174 180 181 176 176 175 172 169 172 177 179 178 179 184 197 169 166 172 176 172 166 162 169 165 159
217 146 162 191 210 257 297 221 250 242 202 190 181 179 177 178 182 185 184 183 182 180 178 175 179 181 181 180 182 176 169 169 175 176 176 183 189 190 183 174 173 177 173 167 161 159 178 154 175
182 182 170 143 161 165 280 282 308 345 105 150 155 161 175 180 178 179 178 177 176 178 180 179 178 179 182 182 177 176 174 170 173 175 173 176 182 184 176 173 173 177 169 166 155 160 186 158 171
166 161 98 111 143 212 286 271 243 238 217 156 159 171 180 178 175 177 177 176 178 179 181 179 180 182 181 180 182 181 184 181 177 171 176 181 184 177 163 164 170 166 154 149 142 150 173 150 190
102 106 113 125 151 153 208 258 234 205 190 173 172 174 177 176 178 178 175 176 173 169 172 177 179 177 176 179 182 179 183 184 175 175 183 183 178 168 168 166 153 151 150 146 148 167 177 176 194
176 172 145 151 206 163 169 257 262 197 166 154 156 159 169 179 174 168 163 162 162 166 174 181 182 180 182 179 176 178 177 175 176 180 182 175 170 166 166 157 149 161 158 156 164 186 201 186 191